Weather History for Galveston, TX

Change the Weather History Date:

Monday, February 10, 2014

  Actual Average Record
Temperature  
Mean Temperature 55 °F 57 °F  
Max Temperature 67 °F 63 °F 76 °F (1999)
Min Temperature 42 °F 50 °F 27 °F (1929)
Degree Days  
Heating Degree Days 10 9  
Month to date heating degree days 156 90  
Since 1 July heating degree days 1100 759  
Cooling Degree Days 0 0  
Month to date cooling degree days 0 0  
Year to date cooling degree days 0 5  
Growing Degree Days 4 (Base 50)    
Moisture  
Dew Point 54 °F    
Average Humidity 96    
Maximum Humidity 100    
Minimum Humidity 92    
Precipitation  
Precipitation 0.20 in 0.09 in 2.41 in (1903)
Month to date precipitation 0.91 0.89  
Year to date precipitation 2.27 5.09  
Snow  
Snow 0.00 in - 0.00 in (2002)
Month to date snowfall 0.0  
Since 1 July snowfall T  
Snow Depth 0.00 in    
Sea Level Pressure  
Sea Level Pressure 30.05 in    
Wind  
Wind Speed 13 mph (East)    
Max Wind Speed 24 mph    
Max Gust Speed 29 mph    
Visibility 4 miles    
Events Fog , Rain    
T = Trace of Precipitation, MM = Missing Value Source: NWS Daily Summary

Daily Weather History Graph

Daily Weather History Graph

Search for Another Location

Airport:

Trip Planner

Search our weather history database for the weather conditions in past years. The results will help you decide how hot, cold, wet, or windy it might be!

Date:

Astronomy

Feb. 10, 2014 Rise Set
Actual Time 7:02 AM CST 6:05 PM CST
Civil Twilight 6:38 AM CST 6:29 PM CST
Nautical Twilight 6:09 AM CST 6:57 PM CST
Astronomical Twilight 5:42 AM CST 7:25 PM CST
Moon 2:42 PM CST (2/10) 3:48 AM CST (2/10)
Length of Visible Light 11h 51m
Length of Day
11h 02m
Waxing Gibbous, 85% of the Moon is Illuminated
Feb 10
Waxing Gibbous
Feb 14
Full
Feb 22
Last Quarter
Mar 1
New
Mar 8
First Quarter

Hourly Weather History & Observations

Time (CST) Temp. Windchill Dew Point Humidity Pressure Visibility Wind Dir Wind Speed Gust Speed Precip Events Conditions
12:52 AM 57.9 °F - 57.9 °F 100% 30.03 in 0.2 mi SE 5.8 mph - N/A Fog Fog
1:52 AM 59.0 °F - 59.0 °F 100% 30.03 in 0.2 mi Calm Calm - N/A Fog Fog
2:52 AM 59.0 °F - 59.0 °F 100% 30.01 in 0.2 mi SE 6.9 mph - N/A Fog Fog
3:52 AM 57.9 °F - 57.9 °F 100% 30.02 in 0.2 mi SSE 5.8 mph - N/A Fog Fog
4:33 AM 60.1 °F - 60.1 °F 100% 30.02 in 0.5 mi SSE 8.1 mph - N/A Fog Fog
4:52 AM 59.0 °F - 59.0 °F 100% 30.02 in 0.5 mi SSE 6.9 mph - N/A Fog Fog
5:11 AM 59.0 °F - 59.0 °F 100% 30.02 in 0.2 mi SSE 6.9 mph - N/A Fog Fog
5:22 AM 59.0 °F - 59.0 °F 100% 30.01 in 0.5 mi SSE 6.9 mph - N/A Fog Fog
5:45 AM 59.0 °F - 59.0 °F 100% 30.02 in 0.2 mi SSE 4.6 mph - N/A Fog Fog
5:52 AM 59.0 °F - 59.0 °F 100% 30.02 in 0.5 mi SSE 6.9 mph - N/A Fog Fog
6:17 AM 61.0 °F - 61.0 °F 100% 30.02 in 2.0 mi SE 5.8 mph - N/A   Overcast
6:35 AM 60.1 °F - 60.1 °F 100% 30.03 in 2.0 mi SE 8.1 mph - N/A   Overcast
6:48 AM 60.8 °F - 60.8 °F 100% 30.03 in 1.8 mi SSE 8.1 mph - N/A   Overcast
6:52 AM 59.0 °F - 59.0 °F 100% 30.03 in 1.8 mi SE 6.9 mph - N/A   Overcast
7:19 AM 60.1 °F - 60.1 °F 100% 30.04 in 1.0 mi SSE 6.9 mph - N/A   Overcast
7:27 AM 60.1 °F - 60.1 °F 100% 30.04 in 0.8 mi SSE 8.1 mph - N/A   Overcast
7:36 AM 60.1 °F - 60.1 °F 100% 30.05 in 2.0 mi SSE 8.1 mph - N/A   Overcast
7:44 AM 60.1 °F - 60.1 °F 100% 30.05 in 4.0 mi SSE 8.1 mph - N/A   Overcast
7:52 AM 60.1 °F - 60.1 °F 100% 30.05 in 4.0 mi SSE 8.1 mph - N/A   Overcast
8:01 AM 61.0 °F - 61.0 °F 100% 30.05 in 5.0 mi SSE 8.1 mph - N/A   Overcast
8:28 AM 61.0 °F - 61.0 °F 100% 30.05 in 5.0 mi SSE 11.5 mph - N/A   Overcast
8:52 AM 61.0 °F - 61.0 °F 100% 30.05 in 2.5 mi SSE 10.4 mph - N/A   Overcast
9:01 AM 62.1 °F - 62.1 °F 100% 30.05 in 4.0 mi SSE 9.2 mph - N/A   Overcast
9:52 AM 62.1 °F - 62.1 °F 100% 30.06 in 8.0 mi SE 10.4 mph - N/A   Overcast
10:52 AM 64.0 °F - 63.0 °F 96% 30.06 in 5.0 mi SE 11.5 mph - N/A   Overcast
11:47 AM 64.4 °F - 62.6 °F 94% 30.04 in 5.0 mi SSE 6.9 mph - N/A   Overcast
11:52 AM 64.0 °F - 63.0 °F 96% 30.04 in 5.0 mi South 6.9 mph - N/A   Overcast
12:32 PM 66.0 °F - 64.0 °F 93% 30.03 in 5.0 mi SSE 9.2 mph - N/A   Overcast
12:52 PM 63.0 °F - 62.1 °F 97% 30.03 in 5.0 mi North - - N/A   Overcast
12:58 PM 55.9 °F - 53.1 °F 90% 30.03 in 10.0 mi NNW 18.4 mph 28.8 mph N/A   Overcast
1:00 PM 55.9 °F - 53.1 °F 90% 30.03 in 5.0 mi North 23.0 mph 28.8 mph N/A   Overcast
1:34 PM 52.0 °F - 51.1 °F 97% 30.02 in 2.5 mi North 18.4 mph - N/A   Overcast
1:52 PM 51.1 °F - 51.1 °F 100% 30.03 in 2.5 mi NNW 20.7 mph - N/A   Overcast
2:52 PM 50.0 °F - 50.0 °F 100% 30.02 in 2.5 mi North 20.7 mph - 0.02 in Rain Light Rain
3:52 PM 48.9 °F - 48.9 °F 100% 30.02 in 2.5 mi North 19.6 mph 27.6 mph 0.00 in   Overcast
4:52 PM 46.9 °F - 46.9 °F 100% 30.03 in 2.5 mi North 21.9 mph 28.8 mph 0.00 in   Overcast
5:46 PM 46.4 °F 39.0 °F 46.4 °F 100% 30.03 in 3.0 mi NNE 19.6 mph - N/A   Overcast
5:52 PM 46.9 °F - 46.9 °F 100% 30.04 in 3.0 mi NNE 19.6 mph 24.2 mph N/A   Overcast
6:30 PM 46.0 °F 38.3 °F 46.0 °F 100% 30.06 in 2.5 mi North 20.7 mph - 0.01 in Rain Light Rain
6:48 PM 44.6 °F 36.4 °F 44.6 °F 100% 30.07 in 4.0 mi North 20.7 mph - 0.02 in Rain Light Rain
6:52 PM 45.0 °F 36.6 °F 45.0 °F 100% 30.07 in 4.0 mi North 21.9 mph - 0.02 in Rain Light Rain
7:18 PM 45.0 °F 37.4 °F 45.0 °F 100% 30.08 in 6.0 mi NNE 18.4 mph 26.5 mph 0.00 in Rain Light Rain
7:26 PM 45.0 °F 37.1 °F 45.0 °F 100% 30.08 in 7.0 mi North 19.6 mph 27.6 mph 0.01 in Rain Light Rain
7:52 PM 45.0 °F 37.1 °F 45.0 °F 100% 30.10 in 5.0 mi North 19.6 mph - 0.01 in   Overcast
8:52 PM 44.1 °F 35.9 °F 44.1 °F 100% 30.09 in 9.0 mi North 19.6 mph - 0.02 in   Overcast
9:52 PM 44.1 °F 36.2 °F 43.0 °F 96% 30.09 in 10.0 mi North 18.4 mph 27.6 mph 0.01 in   Overcast
10:11 PM 43.0 °F 34.0 °F 42.1 °F 97% 30.09 in 9.0 mi North 21.9 mph - 0.00 in Rain Light Rain
10:52 PM 43.0 °F 34.2 °F 42.1 °F 97% 30.11 in 9.0 mi North 20.7 mph - 0.12 in Rain Light Rain
11:32 PM 43.0 °F 34.2 °F 41.0 °F 93% 30.11 in 10.0 mi North 20.7 mph - 0.00 in   Overcast
11:52 PM 43.0 °F 34.5 °F 41.0 °F 93% 30.11 in 9.0 mi North 19.6 mph - 0.00 in   Overcast